| time (UTC) | temp C | wind direction | speed KPH | gust KPH | rain 1hr cm | rain 24hr cm | rain mn cm | humidity % | barometer mb |
| 20260507225157 | 20 | 237 | 0.0 | 3.2 | 0.00 | 0.00 | 0.00 | 60 | 1016.0 |
| 20260507224653 | 20 | 58 | 0.0 | 3.2 | 0.00 | 0.00 | 0.00 | 60 | 1016.0 |
| 20260507224149 | 20 | 159 | 1.6 | 3.2 | 0.00 | 0.00 | 0.00 | 61 | 1015.9 |
| 20260507223645 | 20 | 66 | 3.2 | 4.8 | 0.00 | 0.00 | 0.00 | 65 | 1016.2 |
| 20260507223142 | 20 | 77 | 0.0 | 3.2 | 0.00 | 0.00 | 0.00 | 62 | 1016.3 |
| 20260507222639 | 20 | 60 | 3.2 | 3.2 | 0.00 | 0.00 | 0.00 | 63 | 1016.6 |
| 20260507222136 | 20 | 71 | 0.0 | 6.4 | 0.00 | 0.00 | 0.00 | 62 | 1016.5 |
| 20260507221632 | 20 | 71 | 3.2 | 3.2 | 0.00 | 0.00 | 0.00 | 62 | 1016.7 |
| 20260507221128 | 20 | 61 | 3.2 | 4.8 | 0.00 | 0.00 | 0.00 | 62 | 1016.4 |
| 20260507220626 | 20 | 68 | 1.6 | 4.8 | 0.00 | 0.00 | 0.00 | 62 | 1016.5 |
| 20260507220123 | 20 | 22 | 1.6 | 6.4 | 0.00 | 0.00 | 0.00 | 62 | 1016.4 |
| 20260507215619 | 20 | 108 | 3.2 | 3.2 | 0.00 | 0.00 | 0.00 | 62 | 1016.3 |
| 20260507215117 | 20 | 104 | 0.0 | 4.8 | 0.00 | 0.00 | 0.00 | 61 | 1016.7 |
| 20260507214614 | 20 | 40 | 3.2 | 4.8 | 0.00 | 0.00 | 0.00 | 61 | 1016.5 |
| 20260507214110 | 20 | 97 | 1.6 | 3.2 | 0.00 | 0.00 | 0.00 | 63 | 1016.6 |
| 20260507213607 | 20 | 97 | 3.2 | 4.8 | 0.00 | 0.00 | 0.00 | 62 | 1016.8 |
| 20260507213104 | 21 | 120 | 3.2 | 4.8 | 0.00 | 0.00 | 0.00 | 59 | 1016.6 |
| 20260507212600 | 21 | 82 | 3.2 | 3.2 | 0.00 | 0.00 | 0.00 | 60 | 1016.5 |
| 20260507212057 | 20 | 25 | 3.2 | 3.2 | 0.00 | 0.00 | 0.00 | 61 | 1016.5 |
| 20260507211553 | 21 | 30 | 0.0 | 4.8 | 0.00 | 0.00 | 0.00 | 60 | 1016.4 |
| 20260507211049 | 20 | 85 | 1.6 | 4.8 | 0.00 | 0.00 | 0.00 | 62 | 1016.4 |
| 20260507210547 | 20 | 73 | 3.2 | 4.8 | 0.00 | 0.00 | 0.00 | 61 | 1016.5 |
| 20260507210043 | 20 | 0 | 1.6 | 3.2 | 0.00 | 0.00 | 0.00 | 62 | 1016.4 |
| 20260507205540 | 20 | 57 | 3.2 | 4.8 | 0.00 | 0.00 | 0.00 | 64 | 1016.4 |
| 20260507205037 | 19 | 22 | 1.6 | 4.8 | 0.00 | 0.00 | 0.00 | 63 | 1016.4 |
| 20260507204533 | 19 | 94 | 0.0 | 4.8 | 0.00 | 0.00 | 0.00 | 63 | 1016.8 |
| 20260507204031 | 20 | 83 | 3.2 | 3.2 | 0.00 | 0.00 | 0.00 | 64 | 1017.4 |
| 20260507203528 | 20 | 188 | 3.2 | 6.4 | 0.00 | 0.00 | 0.00 | 60 | 1017.4 |
| 20260507203026 | 20 | 180 | 0.0 | 4.8 | 0.00 | 0.00 | 0.00 | 60 | 1017.4 |
| 20260507202521 | 19 | 182 | 6.4 | 6.4 | 0.00 | 0.00 | 0.00 | 62 | 1017.3 |
| 20260507202018 | 18 | 78 | 0.0 | 6.4 | 0.00 | 0.00 | 0.00 | 65 | 1017.3 |
| 20260507201513 | 19 | 50 | 3.2 | 6.4 | 0.00 | 0.00 | 0.00 | 64 | 1017.3 |
| 20260507201010 | 20 | 79 | 3.2 | 4.8 | 0.00 | 0.00 | 0.00 | 62 | 1017.5 |
| 20260507200505 | 19 | 89 | 0.0 | 4.8 | 0.00 | 0.00 | 0.00 | 64 | 1017.2 |
| 20260507200001 | 20 | 174 | 3.2 | 4.8 | 0.00 | 0.00 | 0.00 | 61 | 1017.4 |
| 20260507195459 | 20 | 60 | 1.6 | 6.4 | 0.00 | 0.00 | 0.00 | 63 | 1017.7 |
| 20260507194956 | 19 | 69 | 3.2 | 4.8 | 0.00 | 0.00 | 0.00 | 65 | 1017.8 |
| 20260507194453 | 18 | 86 | 3.2 | 6.4 | 0.00 | 0.00 | 0.00 | 64 | 1017.6 |
| 20260507193948 | 19 | 92 | 1.6 | 4.8 | 0.00 | 0.00 | 0.00 | 64 | 1017.6 |
| 20260507193446 | 19 | 56 | 0.0 | 6.4 | 0.00 | 0.00 | 0.00 | 64 | 1017.5 |
| 20260507192942 | 19 | 47 | 3.2 | 6.4 | 0.00 | 0.00 | 0.00 | 65 | 1017.7 |
| 20260507192438 | 18 | 49 | 3.2 | 6.4 | 0.00 | 0.00 | 0.00 | 66 | 1018.0 |
| 20260507191936 | 18 | 59 | 3.2 | 4.8 | 0.00 | 0.00 | 0.00 | 69 | 1017.9 |
| 20260507191431 | 18 | 21 | 1.6 | 6.4 | 0.00 | 0.00 | 0.00 | 67 | 1018.0 |
| 20260507190928 | 18 | 71 | 3.2 | 6.4 | 0.00 | 0.00 | 0.00 | 69 | 1017.9 |
| 20260507190426 | 18 | 80 | 1.6 | 3.2 | 0.00 | 0.00 | 0.00 | 68 | 1017.5 |
| 20260507185925 | 18 | 62 | 4.8 | 4.8 | 0.00 | 0.00 | 0.00 | 69 | 1017.9 |
| 20260507185422 | 18 | 65 | 3.2 | 6.4 | 0.00 | 0.00 | 0.00 | 68 | 1017.8 |
| 20260507184918 | 18 | 78 | 3.2 | 6.4 | 0.00 | 0.00 | 0.00 | 66 | 1018.3 |
| 20260507184416 | 18 | 44 | 3.2 | 6.4 | 0.00 | 0.00 | 0.00 | 67 | 1017.8 |
| 20260507183914 | 18 | 71 | 1.6 | 4.8 | 0.00 | 0.00 | 0.00 | 69 | 1018.1 |
| 20260507183410 | 18 | 73 | 4.8 | 6.4 | 0.00 | 0.00 | 0.00 | 68 | 1018.3 |
| 20260507182908 | 18 | 116 | 4.8 | 6.4 | 0.00 | 0.00 | 0.00 | 66 | 1018.2 |
| 20260507182403 | 18 | 45 | 3.2 | 4.8 | 0.00 | 0.00 | 0.00 | 70 | 1018.7 |
| 20260507181900 | 18 | 51 | 0.0 | 4.8 | 0.00 | 0.00 | 0.00 | 69 | 1018.2 |
| 20260507181356 | 17 | 67 | 4.8 | 8.0 | 0.00 | 0.00 | 0.00 | 69 | 1018.2 |
| 20260507180853 | 17 | 127 | 3.2 | 4.8 | 0.00 | 0.00 | 0.00 | 69 | 1018.2 |
| 20260507180349 | 18 | 253 | 1.6 | 4.8 | 0.00 | 0.00 | 0.00 | 69 | 1018.3 |
| 20260507175845 | 17 | 76 | 3.2 | 6.4 | 0.00 | 0.00 | 0.00 | 72 | 1018.0 |
| 20260507175343 | 17 | 59 | 3.2 | 4.8 | 0.00 | 0.00 | 0.00 | 73 | 1017.9 |
| 20260507174840 | 17 | 73 | 4.8 | 4.8 | 0.00 | 0.00 | 0.00 | 72 | 1017.9 |
| 20260507174337 | 17 | 58 | 3.2 | 3.2 | 0.00 | 0.00 | 0.00 | 72 | 1017.8 |
| 20260507173835 | 17 | 80 | 1.6 | 3.2 | 0.00 | 0.00 | 0.00 | 71 | 1018.3 |
| 20260507173331 | 17 | 89 | 1.6 | 4.8 | 0.00 | 0.00 | 0.00 | 72 | 1018.4 |
| 20260507172828 | 17 | 182 | 3.2 | 4.8 | 0.00 | 0.00 | 0.00 | 72 | 1018.2 |
| 20260507172325 | 17 | 83 | 1.6 | 4.8 | 0.00 | 0.00 | 0.00 | 72 | 1018.2 |
| 20260507171820 | 17 | 54 | 3.2 | 4.8 | 0.00 | 0.00 | 0.00 | 73 | 1018.2 |
| 20260507171318 | 17 | 102 | 3.2 | 4.8 | 0.00 | 0.00 | 0.00 | 74 | 1018.1 |
| 20260507170815 | 16 | 30 | 3.2 | 4.8 | 0.00 | 0.00 | 0.00 | 74 | 1018.1 |
| 20260507170311 | 16 | 102 | 3.2 | 3.2 | 0.00 | 0.00 | 0.00 | 76 | 1018.0 |
| 20260507165807 | 16 | 173 | 0.0 | 6.4 | 0.00 | 0.00 | 0.00 | 75 | 1018.8 |
| 20260507165306 | 16 | 66 | 3.2 | 9.7 | 0.00 | 0.00 | 0.00 | 76 | 1018.3 |
| 20260507164759 | 16 | 103 | 3.2 | 3.2 | 0.00 | 0.00 | 0.00 | 76 | 1018.7 |
| 20260507164257 | 16 | 74 | 3.2 | 6.4 | 0.00 | 0.00 | 0.00 | 77 | 1018.2 |
| 20260507163754 | 16 | 78 | 1.6 | 4.8 | 0.00 | 0.00 | 0.00 | 78 | 1018.3 |
| 20260507163251 | 15 | 50 | 3.2 | 4.8 | 0.00 | 0.00 | 0.00 | 80 | 1018.5 |
| 20260507162747 | 15 | 100 | 4.8 | 4.8 | 0.00 | 0.00 | 0.00 | 78 | 1018.7 |
| 20260507162243 | 15 | 79 | 3.2 | 4.8 | 0.00 | 0.00 | 0.00 | 78 | 1019.3 |
| 20260507161740 | 15 | 50 | 3.2 | 6.4 | 0.00 | 0.00 | 0.00 | 77 | 1020.0 |
| 20260507161237 | 15 | 79 | 3.2 | 4.8 | 0.00 | 0.00 | 0.00 | 78 | 1019.8 |
| 20260507160732 | 15 | 146 | 3.2 | 4.8 | 0.00 | 0.00 | 0.00 | 77 | 1019.7 |
| 20260507160229 | 16 | 87 | 0.0 | 4.8 | 0.00 | 0.00 | 0.00 | 77 | 1019.5 |
| 20260507155725 | 15 | 27 | 3.2 | 6.4 | 0.00 | 0.00 | 0.00 | 78 | 1019.5 |
| 20260507155221 | 16 | 88 | 3.2 | 4.8 | 0.00 | 0.00 | 0.00 | 78 | 1019.1 |
| 20260507154718 | 15 | 68 | 3.2 | 6.4 | 0.00 | 0.00 | 0.00 | 79 | 1019.5 |
| 20260507154216 | 15 | 121 | 4.8 | 8.0 | 0.00 | 0.00 | 0.00 | 79 | 1019.1 |
| 20260507153712 | 16 | 81 | 3.2 | 3.2 | 0.00 | 0.00 | 0.00 | 80 | 1019.4 |
| 20260507153209 | 16 | 105 | 3.2 | 4.8 | 0.00 | 0.00 | 0.00 | 79 | 1019.4 |
| 20260507152705 | 15 | 47 | 4.8 | 4.8 | 0.00 | 0.00 | 0.00 | 80 | 1019.6 |
| 20260507152201 | 15 | 114 | 3.2 | 3.2 | 0.00 | 0.00 | 0.00 | 81 | 1019.1 |
| 20260507151657 | 16 | 91 | 1.6 | 4.8 | 0.00 | 0.00 | 0.00 | 81 | 1018.9 |
| 20260507151154 | 15 | 131 | 6.4 | 8.0 | 0.00 | 0.00 | 0.00 | 81 | 1019.3 |
| 20260507150651 | 16 | 59 | 4.8 | 4.8 | 0.00 | 0.00 | 0.00 | 82 | 1019.1 |
| 20260507150148 | 15 | 91 | 3.2 | 4.8 | 0.00 | 0.00 | 0.00 | 82 | 1019.1 |
| 20260507145643 | 15 | 65 | 3.2 | 3.2 | 0.00 | 0.00 | 0.00 | 82 | 1019.3 |
| 20260507145141 | 15 | 68 | 3.2 | 4.8 | 0.00 | 0.00 | 0.00 | 83 | 1019.7 |
| 20260507144637 | 15 | 89 | 3.2 | 4.8 | 0.00 | 0.00 | 0.00 | 83 | 1019.6 |
| 20260507144136 | 15 | 71 | 3.2 | 3.2 | 0.00 | 0.00 | 0.00 | 83 | 1019.4 |
| 20260507143632 | 15 | 98 | 3.2 | 6.4 | 0.00 | 0.00 | 0.00 | 84 | 1019.6 |
| 20260507143129 | 15 | 89 | 1.6 | 4.8 | 0.00 | 0.00 | 0.00 | 84 | 1019.6 |
| 20260507142624 | 15 | 75 | 3.2 | 6.4 | 0.00 | 0.00 | 0.00 | 84 | 1019.0 |
| 20260507142122 | 15 | 133 | 3.2 | 4.8 | 0.00 | 0.00 | 0.00 | 83 | 1019.1 |
| 20260507141618 | 15 | 55 | 3.2 | 3.2 | 0.00 | 0.00 | 0.00 | 83 | 1018.6 |
| 20260507141115 | 15 | 73 | 3.2 | 4.8 | 0.00 | 0.00 | 0.00 | 84 | 1018.9 |
| 20260507140611 | 15 | 83 | 3.2 | 3.2 | 0.00 | 0.00 | 0.00 | 85 | 1018.7 |
| 20260507140109 | 15 | 115 | 3.2 | 6.4 | 0.00 | 0.00 | 0.00 | 85 | 1018.9 |
| 20260507135606 | 15 | 89 | 0.0 | 4.8 | 0.00 | 0.00 | 0.00 | 85 | 1018.9 |
| 20260507135103 | 15 | 110 | 0.0 | 4.8 | 0.00 | 0.00 | 0.00 | 86 | 1018.6 |
| 20260507134559 | 15 | 113 | 4.8 | 8.0 | 0.00 | 0.00 | 0.00 | 85 | 1018.3 |
| 20260507134055 | 15 | 132 | 0.0 | 8.0 | 0.00 | 0.00 | 0.00 | 85 | 1018.3 |
| 20260507133551 | 15 | 60 | 3.2 | 8.0 | 0.00 | 0.00 | 0.00 | 85 | 1018.5 |
| 20260507133049 | 15 | 89 | 3.2 | 6.4 | 0.00 | 0.00 | 0.00 | 85 | 1018.3 |
| 20260507132546 | 15 | 70 | 3.2 | 6.4 | 0.00 | 0.00 | 0.00 | 86 | 1018.2 |
| 20260507132042 | 15 | 100 | 4.8 | 6.4 | 0.00 | 0.00 | 0.00 | 86 | 1018.4 |
| 20260507131539 | 15 | 73 | 3.2 | 6.4 | 0.00 | 0.00 | 0.00 | 86 | 1018.3 |
| 20260507131036 | 15 | 168 | 6.4 | 8.0 | 0.00 | 0.00 | 0.00 | 86 | 1018.4 |
| 20260507130533 | 15 | 103 | 3.2 | 4.8 | 0.00 | 0.00 | 0.00 | 87 | 1018.5 |
| 20260507130031 | 15 | 82 | 1.6 | 6.4 | 0.00 | 0.00 | 0.00 | 87 | 1018.5 |
| 20260507125529 | 15 | 92 | 3.2 | 6.4 | 0.00 | 0.00 | 0.00 | 86 | 1018.4 |
| 20260507125027 | 15 | 47 | 4.8 | 6.4 | 0.00 | 0.00 | 0.00 | 87 | 1018.4 |
| 20260507124523 | 15 | 59 | 3.2 | 6.4 | 0.00 | 0.00 | 0.00 | 87 | 1018.3 |
| 20260507124021 | 15 | 45 | 4.8 | 6.4 | 0.00 | 0.00 | 0.00 | 87 | 1018.4 |
| 20260507123519 | 15 | 56 | 6.4 | 6.4 | 0.00 | 0.00 | 0.00 | 87 | 1018.4 |
| 20260507123015 | 15 | 116 | 6.4 | 9.7 | 0.00 | 0.00 | 0.00 | 86 | 1018.5 |
| 20260507122510 | 15 | 74 | 4.8 | 6.4 | 0.00 | 0.00 | 0.00 | 86 | 1018.3 |
| 20260507122007 | 15 | 70 | 3.2 | 6.4 | 0.00 | 0.00 | 0.00 | 86 | 1018.1 |
| 20260507121502 | 15 | 133 | 3.2 | 4.8 | 0.00 | 0.00 | 0.00 | 86 | 1018.1 |
| 20260507120958 | 15 | 31 | 3.2 | 4.8 | 0.00 | 0.00 | 0.00 | 86 | 1017.8 |
| 20260507120454 | 15 | 49 | 4.8 | 8.0 | 0.00 | 0.00 | 0.00 | 86 | 1017.6 |
| 20260507115951 | 15 | 43 | 4.8 | 6.4 | 0.00 | 0.00 | 0.00 | 86 | 1017.2 |
| 20260507115448 | 15 | 138 | 3.2 | 4.8 | 0.00 | 0.00 | 0.00 | 86 | 1017.6 |
| 20260507114943 | 15 | 86 | 1.6 | 4.8 | 0.00 | 0.00 | 0.00 | 87 | 1018.0 |
| 20260507114440 | 15 | 120 | 4.8 | 6.4 | 0.00 | 0.00 | 0.00 | 86 | 1017.6 |
| 20260507113937 | 15 | 92 | 3.2 | 4.8 | 0.00 | 0.00 | 0.00 | 87 | 1017.8 |
| 20260507113434 | 15 | 29 | 1.6 | 4.8 | 0.00 | 0.00 | 0.00 | 87 | 1017.5 |
| 20260507112932 | 15 | 122 | 1.6 | 6.4 | 0.00 | 0.00 | 0.00 | 86 | 1017.5 |
| 20260507112429 | 15 | 79 | 8.0 | 9.7 | 0.00 | 0.00 | 0.00 | 86 | 1017.6 |
| 20260507111926 | 15 | 82 | 3.2 | 6.4 | 0.00 | 0.00 | 0.00 | 86 | 1017.2 |
| 20260507111423 | 15 | 79 | 3.2 | 6.4 | 0.00 | 0.00 | 0.00 | 86 | 1017.2 |
| 20260507110919 | 15 | 70 | 3.2 | 4.8 | 0.00 | 0.00 | 0.00 | 87 | 1017.4 |
| 20260507110415 | 15 | 103 | 3.2 | 4.8 | 0.00 | 0.00 | 0.00 | 86 | 1017.2 |
| 20260507105913 | 15 | 138 | 1.6 | 4.8 | 0.00 | 0.00 | 0.00 | 86 | 1017.3 |
| 20260507105409 | 15 | 52 | 4.8 | 4.8 | 0.00 | 0.00 | 0.00 | 86 | 1017.6 |
| 20260507104906 | 15 | 62 | 1.6 | 4.8 | 0.00 | 0.00 | 0.00 | 86 | 1017.7 |
| 20260507104402 | 15 | 93 | 3.2 | 4.8 | 0.00 | 0.00 | 0.00 | 86 | 1017.7 |
| 20260507103858 | 15 | 106 | 1.6 | 4.8 | 0.00 | 0.00 | 0.00 | 86 | 1017.6 |
| 20260507103355 | 15 | 135 | 3.2 | 4.8 | 0.00 | 0.00 | 0.00 | 86 | 1017.3 |
| 20260507102851 | 15 | 1 | 1.6 | 4.8 | 0.00 | 0.00 | 0.00 | 86 | 1016.8 |
| 20260507102348 | 15 | 57 | 4.8 | 6.4 | 0.00 | 0.00 | 0.00 | 86 | 1016.8 |
| 20260507101844 | 15 | 67 | 3.2 | 6.4 | 0.00 | 0.00 | 0.00 | 86 | 1017.2 |
| 20260507101344 | 15 | 74 | 3.2 | 9.7 | 0.00 | 0.00 | 0.00 | 86 | 1017.1 |
| 20260507100842 | 15 | 167 | 3.2 | 4.8 | 0.00 | 0.00 | 0.00 | 85 | 1016.8 |
| 20260507100340 | 15 | 63 | 4.8 | 6.4 | 0.00 | 0.00 | 0.00 | 86 | 1016.9 |
| 20260507095838 | 15 | 43 | 3.2 | 4.8 | 0.00 | 0.00 | 0.00 | 86 | 1016.8 |
| 20260507095334 | 15 | 111 | 3.2 | 6.4 | 0.00 | 0.00 | 0.00 | 85 | 1016.8 |
| 20260507094831 | 15 | 86 | 3.2 | 8.0 | 0.00 | 0.00 | 0.00 | 85 | 1016.8 |
| 20260507094327 | 15 | 95 | 3.2 | 6.4 | 0.00 | 0.00 | 0.00 | 85 | 1016.7 |
| 20260507093825 | 15 | 62 | 3.2 | 6.4 | 0.00 | 0.00 | 0.00 | 85 | 1016.6 |
| 20260507093324 | 15 | 68 | 3.2 | 4.8 | 0.00 | 0.00 | 0.00 | 85 | 1016.8 |
| 20260507092821 | 15 | 65 | 3.2 | 3.2 | 0.00 | 0.00 | 0.00 | 85 | 1016.8 |
| 20260507092317 | 15 | 47 | 3.2 | 4.8 | 0.00 | 0.00 | 0.00 | 84 | 1017.0 |
| 20260507091813 | 15 | 92 | 1.6 | 4.8 | 0.00 | 0.00 | 0.00 | 84 | 1016.8 |
| 20260507091311 | 15 | 35 | 3.2 | 4.8 | 0.00 | 0.00 | 0.00 | 83 | 1016.9 |
| 20260507090811 | 15 | 82 | 3.2 | 3.2 | 0.00 | 0.00 | 0.00 | 84 | 1016.8 |
| 20260507090308 | 15 | 98 | 3.2 | 4.8 | 0.00 | 0.00 | 0.00 | 83 | 1016.6 |
| 20260507085805 | 15 | 52 | 4.8 | 4.8 | 0.00 | 0.00 | 0.00 | 83 | 1016.4 |
| 20260507085302 | 15 | 86 | 3.2 | 4.8 | 0.00 | 0.00 | 0.00 | 83 | 1016.4 |
| 20260507084759 | 15 | 64 | 3.2 | 6.4 | 0.00 | 0.00 | 0.00 | 83 | 1016.5 |
| 20260507084255 | 15 | 113 | 3.2 | 6.4 | 0.00 | 0.00 | 0.00 | 83 | 1016.1 |
| 20260507083753 | 16 | 79 | 3.2 | 3.2 | 0.00 | 0.00 | 0.00 | 83 | 1016.1 |
| 20260507083249 | 15 | 101 | 3.2 | 3.2 | 0.00 | 0.00 | 0.00 | 83 | 1016.4 |
| 20260507082745 | 16 | 62 | 3.2 | 4.8 | 0.00 | 0.00 | 0.00 | 83 | 1016.2 |
| 20260507082241 | 16 | 70 | 1.6 | 3.2 | 0.00 | 0.00 | 0.00 | 83 | 1016.4 |
| 20260507081738 | 16 | 67 | 1.6 | 3.2 | 0.00 | 0.00 | 0.00 | 83 | 1016.0 |
| 20260507081234 | 16 | 89 | 0.0 | 4.8 | 0.00 | 0.00 | 0.00 | 82 | 1016.0 |
| 20260507080731 | 16 | 55 | 3.2 | 4.8 | 0.00 | 0.00 | 0.00 | 83 | 1015.8 |
| 20260507080227 | 16 | 93 | 4.8 | 4.8 | 0.00 | 0.00 | 0.00 | 82 | 1015.7 |
| 20260507075722 | 16 | 81 | 0.0 | 4.8 | 0.00 | 0.00 | 0.00 | 82 | 1016.2 |
| 20260507075219 | 16 | 89 | 3.2 | 3.2 | 0.00 | 0.00 | 0.00 | 82 | 1015.9 |
| 20260507074715 | 16 | 48 | 3.2 | 4.8 | 0.00 | 0.00 | 0.00 | 82 | 1015.5 |
| 20260507074214 | 16 | 65 | 1.6 | 3.2 | 0.00 | 0.00 | 0.00 | 82 | 1015.5 |
| 20260507073710 | 16 | 72 | 3.2 | 4.8 | 0.00 | 0.00 | 0.00 | 81 | 1015.6 |
| 20260507073206 | 16 | 76 | 3.2 | 3.2 | 0.00 | 0.00 | 0.00 | 81 | 1016.0 |
| 20260507072705 | 16 | 112 | 3.2 | 4.8 | 0.00 | 0.00 | 0.00 | 81 | 1016.1 |
| 20260507072201 | 16 | 82 | 4.8 | 4.8 | 0.00 | 0.00 | 0.00 | 81 | 1015.8 |
| 20260507071659 | 16 | 71 | 3.2 | 4.8 | 0.00 | 0.00 | 0.00 | 80 | 1015.8 |
| 20260507071155 | 16 | 104 | 1.6 | 4.8 | 0.00 | 0.00 | 0.00 | 81 | 1015.8 |
| 20260507070652 | 16 | 78 | 3.2 | 6.4 | 0.00 | 0.00 | 0.00 | 80 | 1015.9 |
| 20260507070149 | 16 | 85 | 3.2 | 4.8 | 0.00 | 0.00 | 0.00 | 80 | 1016.2 |
| 20260507065645 | 16 | 54 | 4.8 | 4.8 | 0.00 | 0.00 | 0.00 | 80 | 1016.1 |
| 20260507065142 | 16 | 83 | 1.6 | 3.2 | 0.00 | 0.00 | 0.00 | 80 | 1015.9 |
| 20260507064640 | 16 | 80 | 1.6 | 6.4 | 0.00 | 0.00 | 0.00 | 80 | 1015.8 |
| 20260507064138 | 16 | 58 | 3.2 | 4.8 | 0.00 | 0.00 | 0.00 | 80 | 1015.7 |
| 20260507063636 | 16 | 75 | 3.2 | 4.8 | 0.00 | 0.00 | 0.00 | 80 | 1015.7 |
| 20260507063132 | 16 | 242 | 1.6 | 4.8 | 0.00 | 0.00 | 0.00 | 79 | 1015.3 |
| 20260507062629 | 16 | 136 | 0.0 | 4.8 | 0.00 | 0.00 | 0.00 | 79 | 1015.5 |
| 20260507062127 | 16 | 60 | 3.2 | 4.8 | 0.00 | 0.00 | 0.00 | 80 | 1016.0 |
| 20260507061624 | 16 | 82 | 3.2 | 3.2 | 0.00 | 0.00 | 0.00 | 79 | 1015.9 |
| 20260507061122 | 16 | 108 | 3.2 | 4.8 | 0.00 | 0.00 | 0.00 | 79 | 1015.9 |
| 20260507060620 | 16 | 42 | 3.2 | 4.8 | 0.00 | 0.00 | 0.00 | 79 | 1015.7 |
| 20260507060116 | 16 | 62 | 3.2 | 4.8 | 0.00 | 0.00 | 0.00 | 80 | 1015.6 |
| 20260507055612 | 16 | 66 | 1.6 | 3.2 | 0.00 | 0.00 | 0.00 | 79 | 1015.8 |
| 20260507055108 | 16 | 70 | 3.2 | 4.8 | 0.00 | 0.00 | 0.00 | 79 | 1016.0 |
| 20260507054604 | 16 | 141 | 3.2 | 4.8 | 0.00 | 0.00 | 0.00 | 79 | 1015.9 |
| 20260507054101 | 16 | 76 | 3.2 | 4.8 | 0.00 | 0.00 | 0.00 | 79 | 1015.9 |
| 20260507053559 | 16 | 26 | 4.8 | 4.8 | 0.00 | 0.00 | 0.00 | 79 | 1015.9 |
| 20260507053058 | 16 | 107 | 1.6 | 3.2 | 0.00 | 0.00 | 0.00 | 79 | 1015.7 |
| 20260507052555 | 16 | 72 | 1.6 | 3.2 | 0.00 | 0.00 | 0.00 | 78 | 1015.7 |
| 20260507052051 | 16 | 124 | 1.6 | 6.4 | 0.00 | 0.00 | 0.00 | 79 | 1015.7 |
| 20260507051549 | 16 | 77 | 3.2 | 3.2 | 0.00 | 0.00 | 0.00 | 79 | 1015.6 |
| 20260507051046 | 16 | 141 | 3.2 | 8.0 | 0.00 | 0.00 | 0.00 | 78 | 1015.6 |
| 20260507050542 | 16 | 58 | 3.2 | 6.4 | 0.00 | 0.00 | 0.00 | 79 | 1015.4 |
| 20260507050039 | 16 | 81 | 4.8 | 4.8 | 0.00 | 0.00 | 0.00 | 79 | 1015.6 |
| 20260507045536 | 16 | 67 | 3.2 | 4.8 | 0.00 | 0.00 | 0.00 | 78 | 1015.8 |
| 20260507045033 | 16 | 83 | 4.8 | 4.8 | 0.00 | 0.00 | 0.00 | 79 | 1015.6 |
| 20260507044529 | 17 | 180 | 4.8 | 4.8 | 0.00 | 0.00 | 0.00 | 78 | 1015.6 |
| 20260507044026 | 17 | 60 | 3.2 | 6.4 | 0.00 | 0.00 | 0.00 | 79 | 1015.8 |
| 20260507043522 | 17 | 125 | 3.2 | 3.2 | 0.00 | 0.00 | 0.00 | 79 | 1015.8 |
| 20260507043020 | 16 | 51 | 3.2 | 4.8 | 0.00 | 0.00 | 0.00 | 80 | 1015.8 |
| 20260507042515 | 17 | 89 | 3.2 | 6.4 | 0.00 | 0.00 | 0.00 | 79 | 1016.0 |
| 20260507042011 | 17 | 309 | 1.6 | 3.2 | 0.00 | 0.00 | 0.00 | 80 | 1015.5 |
| 20260507041508 | 17 | 48 | 3.2 | 4.8 | 0.00 | 0.00 | 0.00 | 80 | 1015.4 |
| 20260507041005 | 17 | 57 | 3.2 | 3.2 | 0.00 | 0.00 | 0.00 | 80 | 1015.4 |
| 20260507040501 | 17 | 56 | 3.2 | 4.8 | 0.00 | 0.00 | 0.00 | 80 | 1015.7 |
| 20260507035957 | 17 | 86 | 3.2 | 4.8 | 0.00 | 0.00 | 0.00 | 80 | 1015.8 |
| 20260507035454 | 17 | 52 | 3.2 | 6.4 | 0.00 | 0.00 | 0.00 | 80 | 1015.9 |
| 20260507034950 | 17 | 73 | 3.2 | 4.8 | 0.00 | 0.00 | 0.00 | 80 | 1015.7 |
| 20260507034447 | 17 | 128 | 3.2 | 4.8 | 0.00 | 0.00 | 0.00 | 80 | 1015.7 |
| 20260507033945 | 17 | 130 | 1.6 | 4.8 | 0.00 | 0.00 | 0.00 | 80 | 1015.6 |
| 20260507033443 | 17 | 135 | 0.0 | 4.8 | 0.00 | 0.00 | 0.00 | 79 | 1015.6 |
| 20260507032940 | 17 | 47 | 4.8 | 4.8 | 0.00 | 0.00 | 0.00 | 80 | 1015.5 |
| 20260507032437 | 17 | 161 | 0.0 | 4.8 | 0.00 | 0.00 | 0.00 | 79 | 1015.6 |
| 20260507031933 | 17 | 198 | 4.8 | 6.4 | 0.00 | 0.00 | 0.00 | 79 | 1015.6 |
| 20260507031429 | 17 | 92 | 3.2 | 4.8 | 0.00 | 0.00 | 0.00 | 79 | 1015.8 |
| 20260507030926 | 17 | 62 | 3.2 | 4.8 | 0.00 | 0.00 | 0.00 | 79 | 1015.8 |
| 20260507030424 | 17 | 64 | 3.2 | 4.8 | 0.00 | 0.00 | 0.00 | 79 | 1015.6 |
| 20260507025921 | 17 | 94 | 3.2 | 6.4 | 0.00 | 0.00 | 0.00 | 79 | 1015.5 |
| 20260507025418 | 17 | 98 | 0.0 | 6.4 | 0.00 | 0.00 | 0.00 | 79 | 1015.3 |
| 20260507024915 | 17 | 78 | 3.2 | 6.4 | 0.00 | 0.00 | 0.00 | 79 | 1015.1 |
| 20260507024413 | 17 | 89 | 0.0 | 6.4 | 0.00 | 0.00 | 0.00 | 79 | 1015.1 |
| 20260507023908 | 17 | 79 | 3.2 | 6.4 | 0.00 | 0.00 | 0.00 | 79 | 1015.1 |
| 20260507023405 | 17 | 95 | 0.0 | 3.2 | 0.00 | 0.00 | 0.00 | 79 | 1014.9 |
| 20260507022903 | 17 | 63 | 3.2 | 6.4 | 0.00 | 0.00 | 0.00 | 79 | 1014.8 |
| 20260507022359 | 17 | 59 | 3.2 | 4.8 | 0.00 | 0.00 | 0.00 | 79 | 1014.9 |
| 20260507021855 | 17 | 73 | 1.6 | 4.8 | 0.00 | 0.00 | 0.00 | 78 | 1014.8 |
| 20260507021351 | 17 | 155 | 1.6 | 4.8 | 0.00 | 0.00 | 0.00 | 79 | 1014.6 |
| 20260507020849 | 17 | 63 | 4.8 | 6.4 | 0.00 | 0.00 | 0.00 | 79 | 1014.6 |
| 20260507020345 | 17 | 34 | 4.8 | 4.8 | 0.00 | 0.00 | 0.00 | 78 | 1014.9 |
| 20260507015842 | 17 | 119 | 4.8 | 4.8 | 0.00 | 0.00 | 0.00 | 78 | 1014.5 |
| 20260507015340 | 17 | 82 | 1.6 | 3.2 | 0.00 | 0.00 | 0.00 | 78 | 1014.1 |
| 20260507014837 | 17 | 74 | 3.2 | 9.7 | 0.00 | 0.00 | 0.00 | 79 | 1014.1 |
| 20260507014333 | 17 | 60 | 3.2 | 3.2 | 0.00 | 0.00 | 0.00 | 78 | 1014.1 |
| 20260507013830 | 18 | 36 | 4.8 | 6.4 | 0.00 | 0.00 | 0.00 | 78 | 1014.1 |
| 20260507013327 | 17 | 55 | 0.0 | 4.8 | 0.00 | 0.00 | 0.00 | 78 | 1014.0 |
| 20260507012825 | 17 | 84 | 3.2 | 4.8 | 0.00 | 0.00 | 0.00 | 78 | 1013.9 |
| 20260507012320 | 17 | 130 | 3.2 | 6.4 | 0.00 | 0.00 | 0.00 | 78 | 1013.5 |
| 20260507011817 | 18 | 47 | 3.2 | 4.8 | 0.00 | 0.00 | 0.00 | 77 | 1013.6 |
| 20260507011314 | 18 | 69 | 1.6 | 4.8 | 0.00 | 0.00 | 0.00 | 77 | 1013.5 |
| 20260507010814 | 18 | 59 | 3.2 | 6.4 | 0.00 | 0.00 | 0.00 | 78 | 1013.6 |
| 20260507010310 | 18 | 91 | 3.2 | 3.2 | 0.00 | 0.00 | 0.00 | 77 | 1013.5 |
| 20260507005807 | 18 | 64 | 3.2 | 3.2 | 0.00 | 0.00 | 0.00 | 76 | 1013.8 |
| 20260507005305 | 17 | 95 | 0.0 | 3.2 | 0.00 | 0.00 | 0.00 | 77 | 1013.3 |
| 20260507004800 | 17 | 111 | 3.2 | 6.4 | 0.00 | 0.00 | 0.00 | 77 | 1013.5 |
| 20260507004258 | 17 | 61 | 3.2 | 8.0 | 0.00 | 0.00 | 0.00 | 77 | 1013.2 |
| 20260507003754 | 18 | 57 | 4.8 | 6.4 | 0.00 | 0.00 | 0.00 | 77 | 1013.3 |
| 20260507003249 | 18 | 92 | 3.2 | 4.8 | 0.00 | 0.00 | 0.00 | 76 | 1013.3 |
| 20260507002745 | 18 | 54 | 4.8 | 4.8 | 0.00 | 0.00 | 0.00 | 76 | 1013.0 |
| 20260507002241 | 18 | 12 | 0.0 | 3.2 | 0.00 | 0.00 | 0.00 | 76 | 1013.2 |
| 20260507001738 | 18 | 44 | 1.6 | 4.8 | 0.00 | 0.00 | 0.00 | 76 | 1013.3 |
| 20260507001236 | 17 | 88 | 3.2 | 4.8 | 0.00 | 0.00 | 0.00 | 77 | 1013.1 |
| 20260507000732 | 18 | 70 | 3.2 | 6.4 | 0.00 | 0.00 | 0.00 | 76 | 1013.2 |
| 20260507000228 | 18 | 68 | 3.2 | 4.8 | 0.00 | 0.00 | 0.00 | 76 | 1013.1 |
| 20260506235725 | 18 | 35 | 4.8 | 4.8 | 0.00 | 0.00 | 0.00 | 76 | 1013.0 |
| 20260506235220 | 18 | 80 | 3.2 | 4.8 | 0.00 | 0.00 | 0.00 | 76 | 1012.9 |
| 20260506234717 | 18 | 96 | 3.2 | 9.7 | 0.00 | 0.00 | 0.00 | 76 | 1013.2 |
| 20260506234215 | 18 | 101 | 1.6 | 4.8 | 0.00 | 0.00 | 0.00 | 75 | 1013.0 |
| 20260506233712 | 18 | 64 | 1.6 | 3.2 | 0.00 | 0.00 | 0.00 | 75 | 1012.9 |
| 20260506233209 | 18 | 38 | 4.8 | 6.4 | 0.00 | 0.00 | 0.00 | 75 | 1013.0 |
| 20260506232706 | 18 | 114 | 4.8 | 6.4 | 0.00 | 0.00 | 0.00 | 75 | 1013.0 |
| 20260506232200 | 18 | 74 | 4.8 | 4.8 | 0.00 | 0.00 | 0.00 | 75 | 1012.8 |
| 20260506231658 | 18 | 35 | 3.2 | 6.4 | 0.00 | 0.00 | 0.00 | 73 | 1012.9 |
| 20260506231156 | 18 | 88 | 3.2 | 4.8 | 0.00 | 0.00 | 0.00 | 74 | 1012.7 |
| 20260506230652 | 18 | 25 | 1.6 | 3.2 | 0.00 | 0.00 | 0.00 | 74 | 1012.9 |
| 20260506230149 | 18 | 88 | 1.6 | 4.8 | 0.00 | 0.00 | 0.00 | 74 | 1013.1 |